AE5PL Weather Reports


Display with metric or nautical units.
time (UTC)temp
F
wind
direction
speed
MPH
gust
MPH
rain 1hr
in
rain 24hr
in
rain mn
in
humidity
%
barometer
mb
20260509053147 68 0 0.0 0.0 0.00 0.63 0.00 91 1010.1
20260509052647 68 0 0.0 0.0 0.00 0.63 0.00 91 1010.1
20260509052147 68 0 0.0 0.0 0.00 0.63 0.00 91 1010.4
20260509051647 68 0 0.0 0.0 0.00 0.63 0.00 91 1010.3
20260509051147 68 0 0.0 0.0 0.00 0.63 0.00 91 1010.4
20260509050647 68 270 1.0 2.0 0.00 0.63 0.00 91 1010.4
20260509050147 68 270 1.0 3.0 0.00 0.63 0.00 91 1010.3
20260509045647 68 0 0.0 0.0 0.00 0.63 0.63 91 1010.0
20260509045147 68 0 0.0 0.0 0.00 0.63 0.63 91 1009.9
20260509044647 68 0 0.0 0.0 0.01 0.63 0.63 91 1009.9
20260509044147 68 0 0.0 0.0 0.01 0.63 0.63 90 1010.1
20260509043647 68 0 0.0 0.0 0.01 0.63 0.63 90 1009.9
20260509043147 68 0 0.0 0.0 0.01 0.63 0.63 90 1009.9
20260509042647 68 0 0.0 0.0 0.01 0.63 0.63 90 1009.8
20260509042147 68 337 0.0 1.0 0.01 0.63 0.63 90 1009.6
20260509041647 68 0 0.0 0.0 0.01 0.63 0.63 89 1009.6
20260509041147 68 0 0.0 0.0 0.01 0.63 0.63 89 1009.7
20260509040647 69 0 0.0 0.0 0.01 0.63 0.63 89 1009.7
20260509040147 69 45 2.0 3.0 0.01 0.63 0.63 88 1009.3
20260509035647 69 45 2.0 3.0 0.01 0.63 0.63 88 1009.1
20260509035147 69 90 5.0 8.0 0.01 0.63 0.63 88 1008.8
20260509034647 69 157 6.0 10.0 0.00 0.62 0.62 87 1008.9
20260509034147 69 180 4.0 6.0 0.00 0.62 0.62 87 1009.5
20260509033647 70 135 5.0 8.0 0.00 0.62 0.62 86 1009.5
20260509033147 69 157 6.0 8.0 0.00 0.62 0.62 86 1009.7
20260509032647 69 157 5.0 8.0 0.00 0.62 0.62 86 1009.6
20260509032147 70 135 2.0 4.0 0.00 0.62 0.62 85 1009.9
20260509031647 70 135 2.0 3.0 0.00 0.62 0.62 85 1009.4
20260509031147 70 180 2.0 2.0 0.00 0.62 0.62 85 1009.3
20260509030647 70 0 0.0 0.0 0.00 0.62 0.62 84 1009.6
20260509030147 70 0 0.0 0.0 0.00 0.62 0.62 84 1009.8
20260509025647 70 0 0.0 0.0 0.00 0.62 0.62 85 1009.9
20260509025147 70 0 0.0 0.0 0.00 0.62 0.62 85 1009.8
20260509024647 70 45 1.0 2.0 0.00 0.62 0.62 84 1009.8
20260509024147 70 0 0.0 0.0 0.00 0.62 0.62 84 1009.7
20260509023647 70 0 0.0 0.0 0.00 0.62 0.62 84 1009.6
20260509023147 70 0 0.0 0.0 0.00 0.62 0.62 84 1009.5
20260509022647 70 45 2.0 2.0 0.00 0.62 0.62 84 1009.4
20260509022147 70 45 2.0 4.0 0.00 0.62 0.62 83 1009.3
20260509021647 70 0 0.0 0.0 0.00 0.62 0.62 82 1009.1
20260509021147 70 0 0.0 0.0 0.00 0.62 0.62 81 1008.9
20260509020647 71 157 1.0 2.0 0.00 0.62 0.62 81 1008.6
20260509020147 71 157 2.0 4.0 0.00 0.62 0.62 81 1008.5
20260509015647 71 180 2.0 5.0 0.00 0.62 0.62 81 1008.4
20260509015147 71 180 3.0 4.0 0.00 0.62 0.62 80 1008.3
20260509014647 71 157 2.0 4.0 0.00 0.62 0.62 80 1008.4
20260509014147 71 0 0.0 0.0 0.00 0.62 0.62 80 1008.6
20260509013647 71 0 0.0 0.0 0.00 0.62 0.62 79 1008.5
20260509013147 71 157 0.0 2.0 0.00 0.62 0.62 79 1008.3
20260509012647 72 0 0.0 0.0 0.00 0.62 0.62 79 1008.3
20260509012147 72 180 0.0 3.0 0.00 0.62 0.62 78 1008.3
20260509011647 72 180 0.0 2.0 0.00 0.62 0.62 78 1008.2
20260509011147 72 0 0.0 0.0 0.00 0.62 0.62 77 1008.2
20260509010647 72 0 0.0 0.0 0.00 0.62 0.62 77 1008.3
20260509010147 73 0 0.0 0.0 0.00 0.62 0.62 76 1008.3
20260509005647 73 180 2.0 4.0 0.00 0.62 0.62 76 1008.2
20260509005147 73 180 1.0 6.0 0.00 0.62 0.62 75 1008.1
20260509004647 73 180 2.0 5.0 0.00 0.62 0.62 75 1008.1
20260509004147 73 157 5.0 10.0 0.00 0.62 0.62 75 1008.0
20260509003647 73 180 6.0 10.0 0.00 0.62 0.62 74 1007.9
20260509003147 73 180 2.0 8.0 0.00 0.62 0.62 75 1007.8
20260509002647 74 180 3.0 7.0 0.00 0.62 0.62 74 1007.8
20260509002147 74 202 2.0 7.0 0.00 0.62 0.62 74 1007.8
20260509001647 74 180 3.0 10.0 0.00 0.62 0.62 74 1007.8
20260509001147 74 180 3.0 6.0 0.00 0.62 0.62 74 1007.9
20260509000647 74 225 3.0 9.0 0.00 0.62 0.62 73 1007.9
20260509000147 75 157 2.0 6.0 0.00 0.62 0.62 73 1007.9
20260508235647 75 180 3.0 11.0 0.00 0.62 0.62 73 1007.9
20260508235147 75 180 5.0 12.0 0.00 0.62 0.62 73 1007.9
20260508234647 75 225 3.0 10.0 0.00 0.62 0.62 72 1007.8
20260508234147 75 180 7.0 13.0 0.00 0.62 0.62 72 1007.8
20260508233647 76 157 3.0 10.0 0.00 0.62 0.62 70 1007.9
20260508233147 76 202 2.0 9.0 0.00 0.62 0.62 71 1008.0
20260508232647 76 202 4.0 11.0 0.00 0.62 0.62 71 1008.0
20260508232147 76 225 6.0 16.0 0.00 0.62 0.62 71 1008.0
20260508231647 76 157 8.0 13.0 0.00 0.62 0.62 71 1008.0
20260508231147 76 180 8.0 12.0 0.00 0.62 0.62 69 1008.0
20260508230647 76 202 5.0 11.0 0.00 0.62 0.62 70 1008.0
20260508230147 76 225 4.0 10.0 0.00 0.62 0.62 69 1008.1
20260508225647 76 157 5.0 10.0 0.00 0.62 0.62 69 1008.1
20260508225147 77 180 5.0 9.0 0.00 0.62 0.62 68 1008.1
20260508224647 76 225 5.0 11.0 0.00 0.62 0.62 69 1008.1
20260508224147 76 157 6.0 11.0 0.00 0.62 0.62 68 1008.2
20260508223647 76 180 8.0 11.0 0.00 0.62 0.62 67 1008.2
20260508223147 76 157 7.0 11.0 0.00 0.62 0.62 68 1008.1
20260508222647 77 135 8.0 12.0 0.00 0.62 0.62 66 1008.1
20260508222147 77 180 4.0 11.0 0.00 0.62 0.62 66 1008.1
20260508221647 77 225 5.0 10.0 0.00 0.62 0.62 68 1008.0
20260508221147 76 157 7.0 13.0 0.00 0.62 0.62 66 1008.1
20260508220647 77 157 8.0 11.0 0.00 0.62 0.62 67 1008.0
20260508220147 77 157 6.0 9.0 0.00 0.62 0.62 66 1008.0
20260508215647 77 180 5.0 9.0 0.00 0.62 0.62 67 1007.9
20260508215147 77 180 5.0 10.0 0.00 0.62 0.62 66 1007.9
20260508214647 77 135 8.0 12.0 0.00 0.62 0.62 66 1007.9
20260508214147 77 157 6.0 11.0 0.00 0.62 0.62 67 1008.0
20260508213647 77 180 5.0 13.0 0.00 0.62 0.62 65 1007.9
20260508213147 77 180 7.0 13.0 0.00 0.62 0.62 65 1008.1
20260508212647 77 180 6.0 14.0 0.00 0.62 0.62 65 1008.4
20260508212147 78 157 6.0 16.0 0.00 0.62 0.62 66 1008.5
20260508211647 78 157 4.0 12.0 0.00 0.62 0.62 67 1008.7
20260508211147 77 202 8.0 17.0 0.00 0.62 0.62 66 1008.7
20260508210647 78 157 8.0 15.0 0.00 0.62 0.62 65 1008.9
20260508210147 78 180 5.0 12.0 0.00 0.62 0.62 66 1009.2
20260508205647 77 157 4.0 15.0 0.00 0.62 0.62 67 1009.2
20260508205147 77 157 5.0 13.0 0.00 0.62 0.62 65 1009.3
20260508204647 77 225 3.0 11.0 0.00 0.62 0.62 65 1009.5
20260508204147 77 202 5.0 13.0 0.00 0.62 0.62 66 1009.6
20260508203647 77 225 5.0 16.0 0.00 0.62 0.62 65 1009.6
20260508203147 77 180 7.0 14.0 0.00 0.62 0.62 65 1009.6
20260508202647 77 180 4.0 12.0 0.00 0.62 0.62 64 1009.6
20260508202147 77 202 1.0 7.0 0.00 0.62 0.62 65 1009.7
20260508201647 77 157 4.0 12.0 0.00 0.62 0.62 65 1009.9
20260508201147 77 180 4.0 12.0 0.00 0.62 0.62 64 1010.1
20260508200647 77 157 3.0 9.0 0.00 0.62 0.62 65 1010.1
20260508200147 77 180 3.0 13.0 0.00 0.62 0.62 63 1010.2
20260508195647 77 225 3.0 6.0 0.00 0.62 0.62 67 1010.1
20260508195147 76 157 5.0 11.0 0.00 0.62 0.62 65 1010.2
20260508194647 76 180 5.0 10.0 0.00 0.62 0.62 66 1010.2
20260508194147 76 180 5.0 10.0 0.00 0.62 0.62 66 1010.2
20260508193647 76 157 6.0 12.0 0.00 0.62 0.62 67 1010.3
20260508193147 75 180 8.0 12.0 0.00 0.62 0.62 66 1010.4
20260508192647 76 157 7.0 12.0 0.00 0.62 0.62 64 1010.4
20260508192147 76 157 5.0 11.0 0.00 0.62 0.62 64 1010.4
20260508191647 76 157 4.0 11.0 0.00 0.62 0.62 64 1010.4
20260508191147 76 157 4.0 8.0 0.00 0.62 0.62 66 1010.4
20260508190647 76 225 4.0 9.0 0.00 0.62 0.62 65 1010.4
20260508190147 76 157 5.0 10.0 0.00 0.62 0.62 64 1010.5
20260508185647 76 157 5.0 10.0 0.00 0.62 0.62 67 1010.6
20260508185147 76 157 7.0 11.0 0.00 0.62 0.62 63 1010.6
20260508184647 76 157 3.0 9.0 0.00 0.62 0.62 65 1010.7
20260508184147 75 157 3.0 8.0 0.00 0.62 0.62 65 1010.7
20260508183647 74 157 3.0 8.0 0.00 0.62 0.62 66 1010.9
20260508183147 74 180 4.0 10.0 0.00 0.62 0.62 66 1011.0
20260508182647 74 180 5.0 9.0 0.00 0.62 0.62 64 1011.0
20260508182147 74 135 6.0 11.0 0.00 0.62 0.62 66 1011.2
20260508181647 74 180 4.0 10.0 0.00 0.62 0.62 67 1011.3
20260508181147 74 157 4.0 8.0 0.00 0.62 0.62 66 1011.5
20260508180647 74 135 2.0 8.0 0.00 0.62 0.62 67 1011.6
20260508180147 73 135 5.0 10.0 0.00 0.62 0.62 65 1011.5
20260508175647 73 135 5.0 11.0 0.00 0.62 0.62 67 1011.6
20260508175147 74 112 5.0 9.0 0.00 0.62 0.62 66 1011.7
20260508174647 74 112 3.0 8.0 0.00 0.62 0.62 65 1011.9
20260508174147 74 180 1.0 7.0 0.00 0.62 0.62 67 1012.1
20260508173647 73 157 3.0 7.0 0.00 0.62 0.62 67 1012.2
20260508173147 73 180 3.0 9.0 0.00 0.62 0.62 68 1012.3
20260508172647 72 180 3.0 11.0 0.00 0.62 0.62 70 1012.5
20260508172147 72 157 4.0 9.0 0.00 0.62 0.62 68 1012.6
20260508171647 72 225 3.0 8.0 0.01 0.62 0.62 70 1012.8
20260508171147 71 157 5.0 9.0 0.02 0.62 0.62 70 1012.8
20260508170647 70 180 7.0 12.0 0.03 0.62 0.62 71 1012.9
20260508170147 70 180 5.0 11.0 0.03 0.62 0.62 72 1012.9
20260508165647 70 180 3.0 11.0 0.03 0.62 0.62 75 1013.1
20260508165147 69 180 4.0 10.0 0.03 0.62 0.62 77 1013.3
20260508164647 68 180 2.0 8.0 0.03 0.62 0.62 78 1013.3
20260508164147 67 180 5.0 13.0 0.03 0.62 0.62 77 1013.4
20260508163647 67 180 4.0 10.0 0.03 0.62 0.62 78 1013.6
20260508163147 67 180 2.0 8.0 0.03 0.62 0.62 80 1013.5
20260508162647 66 180 4.0 11.0 0.03 0.62 0.62 80 1013.6
20260508162147 66 157 3.0 7.0 0.03 0.62 0.62 80 1013.7
20260508161647 66 202 3.0 8.0 0.02 0.61 0.61 79 1013.6
20260508161147 67 180 6.0 13.0 0.01 0.60 0.60 78 1013.6
20260508160647 67 180 4.0 10.0 0.00 0.59 0.59 81 1013.7
20260508160147 66 225 3.0 8.0 0.00 0.59 0.59 81 1013.8
20260508155647 66 180 5.0 8.0 0.01 0.59 0.59 82 1013.9
20260508155147 66 157 4.0 7.0 0.01 0.59 0.59 83 1014.1
20260508154647 65 180 3.0 6.0 0.01 0.59 0.59 83 1014.2
20260508154147 65 180 3.0 6.0 0.01 0.59 0.59 84 1013.9
20260508153647 65 180 2.0 8.0 0.01 0.59 0.59 85 1014.0
20260508153147 65 157 2.0 5.0 0.01 0.59 0.59 87 1013.8
20260508152647 64 157 1.0 3.0 0.01 0.59 0.59 87 1014.0
20260508152147 64 157 2.0 4.0 0.01 0.59 0.59 87 1014.0
20260508151646 64 157 3.0 5.0 0.01 0.59 0.59 87 1014.1
20260508151147 64 157 3.0 5.0 0.01 0.59 0.59 86 1013.9
20260508150647 64 157 3.0 4.0 0.01 0.59 0.59 85 1014.2
20260508150147 64 157 3.0 8.0 0.01 0.59 0.59 85 1014.2
20260508145647 64 157 3.0 6.0 0.00 0.58 0.58 84 1014.3
20260508145146 64 180 5.0 9.0 0.00 0.58 0.58 85 1014.2
20260508144647 64 157 7.0 9.0 0.00 0.58 0.58 85 1014.1
20260508144146 63 157 6.0 9.0 0.00 0.58 0.58 85 1014.3
20260508143646 63 157 4.0 7.0 0.00 0.58 0.58 86 1014.3
20260508143146 63 135 4.0 7.0 0.00 0.58 0.58 87 1014.3
20260508142646 64 157 4.0 7.0 0.00 0.58 0.58 87 1014.4
20260508142146 64 157 4.0 7.0 0.00 0.58 0.58 88 1014.5
20260508141646 64 157 2.0 3.0 0.00 0.58 0.58 89 1014.5
20260508141146 64 157 2.0 3.0 0.00 0.58 0.58 89 1014.6
20260508140646 63 135 1.0 1.0 0.00 0.58 0.58 91 1014.8
20260508140146 63 135 1.0 4.0 0.00 0.58 0.58 91 1014.7
20260508135646 63 180 2.0 5.0 0.00 0.58 0.58 91 1014.6
20260508135146 63 157 4.0 6.0 0.00 0.58 0.58 93 1014.5
20260508134646 62 157 4.0 5.0 0.00 0.58 0.58 93 1014.5
20260508134146 62 157 3.0 5.0 0.00 0.58 0.58 94 1014.7
20260508133646 62 0 0.0 0.0 0.00 0.58 0.58 94 1014.6
20260508133146 61 0 0.0 0.0 0.00 0.58 0.58 94 1014.6
20260508132646 61 360 2.0 3.0 0.00 0.58 0.58 94 1014.7
20260508132146 61 360 2.0 3.0 0.01 0.58 0.58 94 1014.5
20260508131646 61 135 3.0 5.0 0.03 0.58 0.58 94 1014.2
20260508131146 60 135 2.0 5.0 0.04 0.58 0.58 94 1014.4
20260508130646 60 90 2.0 3.0 0.04 0.58 0.58 93 1014.2
20260508130146 60 112 1.0 2.0 0.05 0.58 0.58 93 1014.4
20260508125646 60 157 2.0 2.0 0.15 0.58 0.58 93 1014.5
20260508125146 60 0 0.0 0.0 0.20 0.58 0.58 93 1015.1
20260508124646 60 0 0.0 0.0 0.27 0.58 0.58 93 1014.8
20260508124146 60 0 0.0 0.0 0.32 0.58 0.58 93 1014.8
20260508123646 60 0 0.0 0.0 0.35 0.58 0.58 93 1014.9
20260508123146 60 0 0.0 0.0 0.36 0.58 0.58 92 1015.0
20260508122646 60 0 0.0 0.0 0.41 0.58 0.58 92 1015.0
20260508122146 59 135 1.0 3.0 0.40 0.57 0.57 92 1014.9
20260508121646 59 135 1.0 3.0 0.38 0.55 0.55 92 1014.8
20260508121146 59 135 1.0 1.0 0.41 0.54 0.54 92 1015.1
20260508120646 59 135 3.0 6.0 0.42 0.54 0.54 92 1014.5
20260508120146 59 157 4.0 8.0 0.41 0.53 0.53 92 1014.5
20260508115646 59 0 0.0 0.0 0.31 0.43 0.43 92 1015.3
20260508115146 59 202 4.0 8.0 0.26 0.38 0.38 92 1014.8
20260508114646 59 180 9.0 13.0 0.21 0.31 0.31 91 1014.0
20260508114146 59 157 9.0 13.0 0.20 0.26 0.26 91 1014.1
20260508113646 59 157 8.0 11.0 0.22 0.23 0.23 90 1014.0
20260508113146 59 157 6.0 14.0 0.22 0.22 0.22 91 1014.0
20260508112646 60 180 7.0 11.0 0.17 0.17 0.17 91 1014.2
20260508112146 60 157 6.0 12.0 0.17 0.17 0.17 92 1014.0
20260508111646 60 157 5.0 11.0 0.17 0.17 0.17 92 1014.2
20260508111146 60 180 4.0 7.0 0.13 0.13 0.13 92 1014.5
20260508110646 60 180 4.0 7.0 0.12 0.12 0.12 92 1014.5
20260508110146 60 247 4.0 9.0 0.12 0.12 0.12 92 1014.7
20260508105646 60 180 6.0 12.0 0.12 0.12 0.12 91 1014.5
20260508104731 60 157 1.0 2.0 0.11 0.11 0.11 91 1014.7
20260508104231 60 157 3.0 5.0 0.09 0.09 0.09 90 1014.6
20260508103731 60 157 1.0 2.0 0.03 0.03 0.03 90 1014.7
20260508103231 60 247 1.0 4.0 0.00 0.00 0.00 91 1015.2
20260508102731 60 315 4.0 7.0 0.00 0.00 0.00 91 1015.0
20260508102231 60 315 3.0 6.0 0.00 0.00 0.00 91 1014.2
20260508101731 59 0 0.0 0.0 0.00 0.00 0.00 91 1013.7
20260508101231 59 0 0.0 0.0 0.00 0.00 0.00 91 1013.4
20260508100731 59 0 0.0 0.0 0.00 0.00 0.00 90 1013.7
20260508100231 60 0 0.0 0.0 0.00 0.00 0.00 90 1013.5
20260508095731 60 0 0.0 0.0 0.00 0.00 0.00 90 1013.7
20260508095231 59 0 0.0 0.0 0.00 0.00 0.00 90 1013.7
20260508094731 60 0 0.0 0.0 0.00 0.00 0.00 90 1013.6
20260508094231 60 0 0.0 0.0 0.00 0.00 0.00 90 1013.7
20260508093731 60 157 1.0 3.0 0.00 0.00 0.00 90 1013.8
20260508093231 60 157 2.0 4.0 0.00 0.00 0.00 90 1013.6
20260508092731 60 22 1.0 2.0 0.00 0.00 0.00 90 1013.7
20260508092231 60 22 2.0 3.0 0.00 0.00 0.00 90 1013.7
20260508091731 60 45 1.0 3.0 0.00 0.00 0.00 90 1013.5
20260508091231 60 157 4.0 7.0 0.00 0.00 0.00 90 1013.7
20260508090731 60 157 4.0 9.0 0.00 0.00 0.00 89 1013.9
20260508090231 60 180 1.0 3.0 0.00 0.00 0.00 89 1014.4
20260508085731 60 180 0.0 2.0 0.00 0.00 0.00 88 1014.1
20260508085231 61 180 1.0 2.0 0.00 0.00 0.00 88 1014.2
20260508084731 61 157 1.0 2.0 0.00 0.00 0.00 88 1014.5
20260508084231 61 157 3.0 5.0 0.00 0.00 0.00 87 1013.9
20260508083731 61 157 1.0 2.0 0.00 0.00 0.00 87 1014.1
20260508083231 61 157 0.0 2.0 0.00 0.00 0.00 87 1014.3
20260508082731 61 247 0.0 2.0 0.00 0.00 0.00 87 1014.6
20260508082231 61 180 6.0 13.0 0.00 0.00 0.00 87 1014.2
20260508081731 60 180 7.0 12.0 0.00 0.00 0.00 88 1014.0
20260508081231 60 157 1.0 5.0 0.00 0.00 0.00 89 1014.4
20260508080731 60 157 0.0 4.0 0.00 0.00 0.00 90 1014.8
20260508080231 59 157 1.0 1.0 0.00 0.00 0.00 90 1015.2
20260508075731 59 0 0.0 0.0 0.00 0.00 0.00 90 1015.4
20260508075231 59 0 0.0 0.0 0.00 0.00 0.00 90 1015.0
20260508074731 59 0 0.0 0.0 0.00 0.00 0.00 90 1015.2
20260508074231 59 0 0.0 0.0 0.00 0.00 0.00 90 1015.4
20260508073731 59 157 1.0 2.0 0.00 0.00 0.00 90 1015.2
20260508073231 58 157 1.0 2.0 0.00 0.00 0.00 90 1014.7
20260508072731 58 0 0.0 0.0 0.00 0.00 0.00 90 1014.8
20260508072231 58 0 0.0 0.0 0.00 0.00 0.00 90 1015.1
20260508071731 58 0 0.0 0.0 0.00 0.00 0.00 89 1014.8
20260508071231 58 0 0.0 0.0 0.00 0.00 0.00 88 1014.9
20260508070731 59 157 0.0 1.0 0.00 0.00 0.00 88 1015.1
20260508070231 59 157 1.0 2.0 0.00 0.00 0.00 89 1015.3
20260508065731 59 157 1.0 2.0 0.00 0.00 0.00 89 1015.3
20260508065231 59 0 0.0 0.0 0.00 0.00 0.00 89 1015.5
20260508064731 59 0 0.0 0.0 0.00 0.00 0.00 89 1015.8
20260508064231 59 0 0.0 0.0 0.00 0.00 0.00 89 1015.9
20260508063731 59 0 0.0 0.0 0.00 0.00 0.00 89 1015.7
20260508063231 59 0 0.0 0.0 0.00 0.00 0.00 89 1015.8
20260508062731 59 0 0.0 0.0 0.00 0.00 0.00 89 1015.9
20260508062231 59 0 0.0 0.0 0.00 0.00 0.00 88 1015.7
20260508061731 59 0 0.0 0.0 0.00 0.00 0.00 88 1015.6
20260508061231 59 0 0.0 0.0 0.00 0.00 0.00 88 1015.6
20260508060731 59 0 0.0 0.0 0.00 0.00 0.00 88 1015.6
20260508060231 59 0 0.0 0.0 0.00 0.00 0.00 88 1015.6
20260508055731 59 0 0.0 0.0 0.00 0.00 0.00 88 1015.5
20260508055231 59 0 0.0 0.0 0.00 0.00 0.00 87 1015.5
20260508054731 59 0 0.0 0.0 0.00 0.00 0.00 87 1015.7
20260508054231 59 0 0.0 0.0 0.00 0.00 0.00 87 1015.6
20260508053731 59 0 0.0 0.0 0.00 0.00 0.00 87 1015.7